• Em Portugal
  • Lista de países
  • Para 7 dias
  • Temperatura da água
  • Mapas de satélite
  • Mapa do tempo
  • Widgets de tempo
  • user-avatar
    Iniciar Sessão

    Previsão horária em Calai e Nau

    Hoje, 21 Novembro, Terça-feira

    Tempo Temperatura Precipitação Vento Pressão Humidade
    00:00 +9°C° 0 mm 2 m/s 682 mmHg 18%
    01:00 +9°C° 0 mm 2 m/s 682 mmHg 18%
    02:00 +9°C° 0 mm 2 m/s 682 mmHg 18%
    03:00 +9°C° 0 mm 2 m/s 682 mmHg 18%
    04:00 +8°C° 0 mm 2 m/s 682 mmHg 19%
    05:00 +8°C° 0 mm 2 m/s 682 mmHg 19%
    06:00 +9°C° 0 mm 2 m/s 682 mmHg 19%
    07:00 +9°C° 0 mm 2 m/s 682 mmHg 18%
    08:00 +12°C° 0 mm 2 m/s 683 mmHg 16%
    09:00 +15°C° 0 mm 2 m/s 683 mmHg 13%
    10:00 +19°C° 0 mm 1 m/s 684 mmHg 10%
    11:00 +20°C° 0 mm 1 m/s 683 mmHg 9%
    12:00 +21°C° 0 mm 1 m/s 683 mmHg 9%
    13:00 +21°C° 0 mm 1 m/s 683 mmHg 8%
    14:00 +21°C° 0 mm 1 m/s 682 mmHg 9%
    15:00 +20°C° 0 mm 1 m/s 682 mmHg 10%
    16:00 +19°C° 0 mm 1 m/s 681 mmHg 10%
    17:00 +16°C° 0 mm 1 m/s 681 mmHg 11%
    18:00 +15°C° 0 mm 1 m/s 681 mmHg 13%
    19:00 +13°C° 0 mm 2 m/s 681 mmHg 14%
    20:00 +13°C° 0 mm 2 m/s 681 mmHg 14%
    21:00 +13°C° 0 mm 2 m/s 680 mmHg 14%
    22:00 +13°C° 0 mm 2 m/s 680 mmHg 15%
    23:00 +12°C° 0 mm 2 m/s 680 mmHg 15%

    Amanhã, 22 Novembro, Quarta-feira

    Tempo Temperatura Precipitação Vento Pressão Humidade
    00:00 +12°C° 0 mm 2 m/s 680 mmHg 15%
    01:00 +11°C° 0 mm 3 m/s 680 mmHg 15%
    02:00 +11°C° 0 mm 3 m/s 679 mmHg 16%
    03:00 +11°C° 0 mm 3 m/s 679 mmHg 16%
    04:00 +10°C° 0 mm 3 m/s 679 mmHg 16%
    05:00 +11°C° 0 mm 3 m/s 679 mmHg 16%
    06:00 +11°C° 0 mm 3 m/s 679 mmHg 15%
    07:00 +11°C° 0 mm 3 m/s 679 mmHg 15%
    08:00 +13°C° 0 mm 3 m/s 680 mmHg 13%
    09:00 +17°C° 0 mm 2 m/s 680 mmHg 11%
    10:00 +19°C° 0 mm 2 m/s 681 mmHg 9%
    11:00 +20°C° 0 mm 2 m/s 680 mmHg 8%
    12:00 +21°C° 0 mm 2 m/s 680 mmHg 7%
    13:00 +21°C° 0 mm 2 m/s 680 mmHg 7%
    14:00 +21°C° 0 mm 2 m/s 680 mmHg 7%
    15:00 +20°C° 0 mm 2 m/s 679 mmHg 8%
    16:00 +19°C° 0 mm 2 m/s 679 mmHg 9%
    17:00 +18°C° 0 mm 2 m/s 679 mmHg 10%
    18:00 +17°C° 0 mm 2 m/s 679 mmHg 12%
    19:00 +16°C° 0 mm 2 m/s 679 mmHg 13%
    20:00 +15°C° 0 mm 2 m/s 679 mmHg 15%
    21:00 +15°C° 0 mm 2 m/s 679 mmHg 17%
    22:00 +15°C° 0 mm 2 m/s 679 mmHg 19%
    23:00 +14°C° 0 mm 2 m/s 679 mmHg 20%

    Depois de amanhã, 23 Novembro, Quinta-feira

    Tempo Temperatura Precipitação Vento Pressão Humidade
    00:00 +14°C° 0 mm 2 m/s 679 mmHg 21%
    01:00 +14°C° 0 mm 2 m/s 678 mmHg 22%
    02:00 +14°C° 0 mm 2 m/s 678 mmHg 21%
    03:00 +14°C° 0 mm 2 m/s 678 mmHg 21%
    04:00 +14°C° 0 mm 2 m/s 678 mmHg 21%
    05:00 +13°C° 0 mm 3 m/s 679 mmHg 22%
    06:00 +13°C° 0 mm 3 m/s 679 mmHg 23%
    07:00 +13°C° 0 mm 3 m/s 679 mmHg 24%
    08:00 +15°C° 0,1 mm 4 m/s 680 mmHg 24%
    09:00 +17°C° 0,1 mm 4 m/s 680 mmHg 25%
    10:00 +17°C° 0,1 mm 5 m/s 680 mmHg 26%
    11:00 +19°C° 0 mm 4 m/s 680 mmHg 24%
    12:00 +20°C° 0 mm 4 m/s 680 mmHg 22%
    13:00 +21°C° 0 mm 4 m/s 679 mmHg 20%
    14:00 +21°C° 0 mm 3 m/s 679 mmHg 20%
    15:00 +20°C° 0 mm 3 m/s 679 mmHg 21%
    16:00 +20°C° 0 mm 2 m/s 679 mmHg 22%
    17:00 +19°C° 0 mm 2 m/s 679 mmHg 24%
    18:00 +17°C° 0 mm 2 m/s 679 mmHg 26%
    19:00 +16°C° 0 mm 2 m/s 679 mmHg 28%
    20:00 +16°C° 0 mm 2 m/s 679 mmHg 28%
    21:00 +16°C° 0 mm 3 m/s 679 mmHg 28%
    22:00 +14°C° 0 mm 3 m/s 679 mmHg 27%
    23:00 +15°C° 0 mm 2 m/s 679 mmHg 27%

    24 Novembro, Sexta-feira

    Tempo Temperatura Precipitação Vento Pressão Humidade
    00:00 +15°C° 0 mm 2 m/s 679 mmHg 27%
    01:00 +14°C° 0 mm 2 m/s 679 mmHg 27%
    02:00 +14°C° 0 mm 2 m/s 679 mmHg 27%
    03:00 +14°C° 0 mm 2 m/s 679 mmHg 27%
    04:00 +14°C° 0 mm 2 m/s 679 mmHg 27%
    05:00 +13°C° 0 mm 2 m/s 680 mmHg 31%
    06:00 +13°C° 0 mm 2 m/s 680 mmHg 35%
    07:00 +12°C° 0 mm 2 m/s 681 mmHg 39%
    08:00 +13°C° 0 mm 2 m/s 681 mmHg 41%
    09:00 +12°C° 0 mm 3 m/s 681 mmHg 43%
    10:00 +13°C° 0 mm 3 m/s 682 mmHg 45%
    11:00 +13°C° 0,2 mm 3 m/s 681 mmHg 47%
    12:00 +13°C° 0,2 mm 3 m/s 681 mmHg 49%
    13:00 +13°C° 0,2 mm 3 m/s 681 mmHg 51%
    14:00 +13°C° 0,2 mm 3 m/s 680 mmHg 50%
    15:00 +13°C° 0,2 mm 3 m/s 680 mmHg 48%
    16:00 +14°C° 0,2 mm 3 m/s 680 mmHg 47%
    17:00 +13°C° 0 mm 3 m/s 680 mmHg 48%
    18:00 +13°C° 0 mm 2 m/s 680 mmHg 50%
    19:00 +12°C° 0 mm 2 m/s 680 mmHg 52%
    20:00 +12°C° 0 mm 1 m/s 680 mmHg 52%
    21:00 +12°C° 0 mm 1 m/s 680 mmHg 52%
    22:00 +11°C° 0 mm 1 m/s 680 mmHg 52%
    23:00 +11°C° 0 mm 1 m/s 680 mmHg 51%

    25 Novembro, Sábado

    Tempo Temperatura Precipitação Vento Pressão Humidade
    00:00 +10°C° 0 mm 2 m/s 680 mmHg 51%
    01:00 +10°C° 0 mm 2 m/s 679 mmHg 51%
    02:00 +10°C° 0 mm 2 m/s 679 mmHg 49%
    03:00 +10°C° 0 mm 3 m/s 679 mmHg 47%
    04:00 +11°C° 0 mm 3 m/s 679 mmHg 46%
    05:00 +10°C° 0,1 mm 3 m/s 679 mmHg 48%
    06:00 +10°C° 0,1 mm 3 m/s 679 mmHg 50%
    07:00 +10°C° 0,1 mm 2 m/s 680 mmHg 52%
    08:00 +13°C° 0,1 mm 3 m/s 680 mmHg 46%
    09:00 +15°C° 0,1 mm 4 m/s 681 mmHg 41%
    10:00 +17°C° 0,1 mm 5 m/s 682 mmHg 36%
    11:00 +18°C° 0,1 mm 7 m/s 682 mmHg 33%
    12:00 +20°C° 0,1 mm 8 m/s 682 mmHg 31%
    13:00 +19°C° 0,1 mm 9 m/s 682 mmHg 29%
    14:00 +18°C° 0 mm 8 m/s 682 mmHg 31%
    15:00 +17°C° 0 mm 7 m/s 682 mmHg 32%
    16:00 +16°C° 0 mm 6 m/s 682 mmHg 33%
    17:00 +14°C° 0 mm 5 m/s 683 mmHg 42%
    18:00 +13°C° 0 mm 3 m/s 683 mmHg 50%
    19:00 +12°C° 0 mm 2 m/s 684 mmHg 58%
    20:00 +10°C° 0 mm 2 m/s 684 mmHg 63%
    21:00 +9°C° 0 mm 2 m/s 684 mmHg 68%
    22:00 +10°C° 0 mm 1 m/s 684 mmHg 72%
    23:00 +9°C° 0 mm 1 m/s 684 mmHg 73%

    26 Novembro, Domingo

    Tempo Temperatura Precipitação Vento Pressão Humidade
    00:00 +9°C° 0 mm 1 m/s 684 mmHg 74%
    01:00 +9°C° 0 mm 1 m/s 684 mmHg 75%
    02:00 +8°C° 0 mm 1 m/s 684 mmHg 75%
    03:00 +8°C° 0 mm 1 m/s 684 mmHg 75%
    04:00 +8°C° 0 mm 1 m/s 684 mmHg 76%
    05:00 +8°C° 0 mm 1 m/s 684 mmHg 76%
    06:00 +8°C° 0 mm 1 m/s 684 mmHg 76%
    07:00 +7°C° 0 mm 1 m/s 684 mmHg 76%
    08:00 +8°C° 0 mm 2 m/s 685 mmHg 70%
    09:00 +9°C° 0 mm 2 m/s 685 mmHg 64%
    10:00 +10°C° 0 mm 3 m/s 686 mmHg 59%
    11:00 +10°C° 0 mm 3 m/s 685 mmHg 58%
    12:00 +10°C° 0 mm 3 m/s 685 mmHg 57%
    13:00 +10°C° 0 mm 4 m/s 685 mmHg 56%
    14:00 +10°C° 0 mm 3 m/s 685 mmHg 58%
    15:00 +9°C° 0 mm 3 m/s 685 mmHg 60%
    16:00 +9°C° 0 mm 3 m/s 686 mmHg 63%
    17:00 +8°C° 0 mm 2 m/s 686 mmHg 66%
    18:00 +7°C° 0 mm 2 m/s 686 mmHg 69%
    19:00 +7°C° 0 mm 2 m/s 687 mmHg 73%
    20:00 +6°C° 0 mm 2 m/s 687 mmHg 74%
    21:00 +6°C° 0 mm 2 m/s 687 mmHg 75%
    22:00 +6°C° 0 mm 2 m/s 687 mmHg 76%
    23:00 +6°C° 0 mm 1 m/s 687 mmHg 77%
    Mostrar mais